Regional Weather Roundup
Issued by NWS Grand Forks, ND

Home | Current Version | Previous Version | Text Only | Print | Product List | Glossary On
Versions: 1 2 3 4 5 6 7 8 9 10 11 12 13 14 15 16 17 18 19 20 21 22 23 24 25 26 27 28 29 30 31 32 33 34 35 36 37 38 39 40 41 42 43 44 45 46 47 48 49 50
000
ASUS43 KFGF 140531
RWRFGF
PRAIRIE TO PINES  WEATHER ROUNDUP
NATIONAL WEATHER SERVICE EASTERN NORTH DAKOTA/GRAND FORKS ND
1200 AM CDT MON JUL 14 2014

 **SATELLITE DATA USED TO AUGMENT SKY COVER AT AUTOMATED STATIONS**
 *****  WEATHER ACROSS EASTERN NORTH DAKOTA  *****

CITY           SKY/WX    TMP DP  RH WIND       PRES   REMARKS
GRAND FORKS    LGT RAIN  54  52  94 N12G21    29.97R FOG
GRAND FRKS AFB LGT RAIN  55  54  94 NE14      29.98R
GRAND FRKS NWS   N/A     52 N/A N/A NW10        N/A
DEVILS LAKE    MOCLDY    57  45  62 NW18G28   30.01S
FARGO          CLOUDY    63  47  55 NW10      29.95S
WAHPETON ARPT  CLOUDY    63  43  48 NW12      29.97R
$$

 ***** WEATHER ACROSS CENTRAL AND WESTERN NORTH DAKOTA  *****

CITY           SKY/WX    TMP DP  RH WIND       PRES   REMARKS
BISMARCK       CLEAR     61  47  59 N7        30.10R
MINOT          CLOUDY    58  47  66 NW8       30.11R
JAMESTOWN      CLOUDY    60  47  61 N7        30.02R
MINOT AFB      CLOUDY    58  50  74 N9        30.12R
GARRISON         N/A     52  49  89 NW7       30.12R
WILLISTON      CLEAR     58  46  64 N8        30.19R
DICKINSON      CLEAR     55  42  61 N8        30.16R
HETTINGER      CLEAR     55  44  66 N9        30.18R
$$

 *****  OTHER AIRPORT OBSERVATIONS IN OUR AREA  *****

CITY           SKY/WX    TMP DP  RH WIND       PRES   REMARKS
WALHALLA         N/A     54  54 100 N18         N/A
GRAFTON AIRPOR MOCLDY    52  52 100 NW12      29.96F
VALLEY CITY AR CLOUDY    59  46  63 NW9       30.01S
CANDO          MOCLDY    55  48  76 N18G28    30.05R
CAVALIER APRT  LGT RAIN  54  50  87 N21G26    29.97R
GWINNER        CLOUDY    63  50  63 NW6       30.01S
ROLLA          CLOUDY    54  46  76 NW13G21   30.06S
 ***** THE ABOVE OBSERVATIONS ARE NON NWS ARE NOT QUALITY
       CONTROLLED AND MAY MIS-REPORT RAIN FOR SNOW...
$$

  *****  WEATHER ACROSS NORTHERN MINNESOTA  *****

CITY           SKY/WX    TMP DP  RH WIND       PRES   REMARKS
FLAG ISLAND    LGT RAIN  52  48  87 NW21      29.83S
WARROAD        CLOUDY    48  46  93 NW14      29.88R
ROSEAU         CLOUDY    50  45  81 NW13      29.89R
HALLOCK        CLOUDY    54  48  82 NW14G24   29.94S
THF RVR FALLS  CLOUDY    52  48  87 NW14      29.93S
BAUDETTE       LGT RAIN  51  49  92 NW9       29.84S
WASKISH        CLOUDY    52  48  87 W14G22    29.86R
CROOKSTON      CLOUDY    52  50  93 N17       29.96R
$$
  *****  WEATHER ACROSS CENTRAL AND WEST MINNESOTA  *****

CITY           SKY/WX    TMP DP  RH WIND       PRES   REMARKS
FOSSTON        CLOUDY    55  46  71 W12G17    29.92S
BEMIDJI        MOCLDY    53  48  84 W13       29.88S
PARK RAPIDS    MOCLDY    56  49  77 W6        29.91F
ELBOW LAKE     NOT AVBL
WADENA         PTCLDY    57  48  72 NW5       29.92F
DETROIT LAKES  PTCLDY    59  50  72 NW7       29.94F
MOORHEAD       CLOUDY    63  46  55 NW15      29.96S
FERGUS FALLS   CLOUDY    61  45  55 NW12      29.95S
MORRIS MN      MOCLDY    55  52  88 W5        29.96S
STAPLES        CLOUDY    57  50  77 CALM      29.92S
$$
  *****  WEATHER ELSEWHERE ACROSS MINNESOTA  *****

CITY           SKY/WX    TMP DP  RH WIND       PRES   REMARKS
DULUTH         PTCLDY    54  47  77 W8        29.86F
INTRNTL FALLS  LGT RAIN  50  49  96 W8        29.80S FOG
ELY            MOCLDY    52  48  87 W6        29.82F
CLOQUET        PTCLDY    54  46  76 W5        29.87F
WHEATON        CLOUDY    61  50  67 W3        29.99S
BRAINERD       CLOUDY    63  48  58 NW7       29.92S
HIBBING        MOCLDY    52  49  89 W5        29.85F
ALEXANDRIA     CLOUDY    62  48  60 NW8       29.95F
SAINT CLOUD    CLOUDY    64  48  56 NW6       29.91S
MINNEAPOLIS    PTCLDY    65  50  58 W6        29.90S
$$

  *****  WEATHER ACROSS SOUTH DAKOTA  *****

CITY           SKY/WX    TMP DP  RH WIND       PRES   REMARKS
SIOUX FALLS    CLEAR     62  48  60 NW8       30.00S
BROOKINGS      NOT AVBL
WATERTOWN      CLEAR     61  49  64 NW7       30.01R
HURON          CLEAR     55  50  83 NW6       30.03R
SISSETON         N/A     59  50  72 NW8       29.98R
ABERDEEN       CLEAR     56  45  66 NW8       30.03R
MITCHELL       CLEAR     60  50  69 NW9       30.03S
PIERRE         CLEAR     59  49  69 N8        30.07R
MOBRIDGE       CLEAR     54  49  83 CALM      30.06R
RAPID CITY     CLEAR     60  53  77 N7        30.19R
$$

  *****  SOME WEATHER IN NEARBY STATES *****

CITY           SKY/WX    TMP DP  RH WIND       PRES   REMARKS
GLASGOW MT     CLEAR     58  41  53 NE10      30.23R
GREAT FALLS MT PTCLDY    73  46  38 NE10      30.25R
CHEYENNE WY    CLEAR     61  54  77 W8        30.32S
SCOTTSBLUFF NE CLEAR     68  63  84 NE6       30.17S
OMAHA NE       CLEAR     73  68  84 CALM      29.97F
DES MOINES IA  MOCLDY    74  65  73 SW6       29.93F
DAVENPORT IA     N/A     65  62  90 CALM      29.93S
CHICAGO IL     PTCLDY    72  50  45 NW10      29.90S
EAU CLAIRE WI  PTCLDY    58  54  86 SW3       29.87F
LA CROSSE WI   MOCLDY    64  59  83 SE6       29.89F
$$

  *****  SOME NATIONAL WEATHER *****

CITY           SKY/WX    TMP DP  RH WIND       PRES   REMARKS
LA GUARDIA NY  RAIN      73  69  87 W9G17     29.94F FOG
RALEIGH NC     PTCLDY    79  70  74 SW10      30.03S
ATLANTA GA     MOCLDY    77  70  79 SW5       30.08S
NEW ORLEANS LA PTCLDY    79  72  79 CALM      30.03F
OKLAHOMA CITY  MOCLDY    83  63  50 N5        30.00F
ALBUQUERQUE NM CLOUDY    72  54  53 E10       30.27R
SALT LAKE CITY MOCLDY    84  44  24 SE6       30.08S
LOS ANGELES CA PTCLDY    71  63  75 CALM      29.92R
BOISE ID       CLOUDY    92  41  17 E8        29.93S
SEATTLE WA     CLOUDY    72  61  68 S5        30.08R
$$

*** WEATHER ACROSS MANITOBA...SASKATCHEWAN AND ONTARIO ***
                ***ONTARIO***

CITY           SKY/WX    TMP DP  RH WIND       PRES   REMARKS
GERALDTON      PTCLDY    54  50  87 W3        29.73S
THUNDER BAY    CLOUDY    54  52  94 SW3       29.78S
SIOUX LOOKOUT  MOCLDY    46  46 100 CALM      29.78R
TORONTO        MOCLDY    66  57  72 N15       29.88R
BIG TROUT LK   PTCLDY    52  46  82 N9        29.87R
PICKLE LAKE    NOT AVBL
DRYDEN         RAIN      50  48  93 N3        29.78S
KENORA         LGT RAIN  48  48 100 NW9       29.82  FOG
$$
                *** MANITOBA***

CITY           SKY/WX    TMP DP  RH WIND       PRES   REMARKS
BRANDON        LGT RAIN  55  52  88 N18G32    30.09R FOG
DAUPHIN        MOCLDY    54  52  94 N9        30.11R
ISLAND LAKE    LGT RAIN N/A N/A N/A NE12        N/A
PILOT MOUND      N/A     52  50  93 N14G21      N/A
THE PAS        PTCLDY    57  52  82 NW6       30.20R
THOMPSON       MOCLDY    55  52  88 NE10      30.17R
WINNIPEG       PTCLDY    48  46  93 N13       29.97R
LYNN LAKE      CLEAR     50  46  87 N6        30.28R
CHURCHILL      MOCLDY    45  45 100 N9        30.23S
GILLAM         MOCLDY    48  46  93 N14       30.16R
$$
                ***SASKATCHEWAN***

CITY           SKY/WX    TMP DP  RH WIND       PRES   REMARKS
ESTEVAN        PTCLDY    54  48  82 N8        30.19R
KINDERSLEY     CLEAR     54  46  76 NE5       30.29
LLOYDMINSTER   CLEAR     55  43  62 E3        30.30R
PRINCE ALBERT  PTCLDY    54  48  82 NE6       30.29R
REGINA         MOCLDY    57  50  77 N7        30.24R
YORKTON        CLOUDY    55  46  71 N16G24    30.20R
N. BATTLEFORD  CLEAR     55  46  71 NE7       30.32R
LA RONGE       PTCLDY    52  48  87 CALM      30.31R
SASKATOON      CLEAR     55  48  76 N8        30.29R
SWIFT CURRENT  CLEAR     54  45  71 E8        30.29R
$$
NOTE: THESE ARE AUTOMATED STATIONS WITH LIMITED QUALITY CONTROL
      "FAIR" INDICATES FEW OR NO CLOUDS BELOW 12,000 FEET WITH NO
      SIGNIFICANT WEATHER AND/OR OBSTRUCTIONS TO VISIBILITY.
      SKY/WX - SKY CONDITION AND SIGNIFICANT WEATHER.
      TMP - AIR TEMPERATURE.    DP   - DEWPOINT TEMPERATURE.
      RH  - RELATIVE HUMIDITY.  PRES - PRESSURE.
      HX  - HEAT INDEX.         WCI  - WIND CHILL INDEX.
$



USA.gov is the U.S. government's official web portal to all federal, state and local government web resources and services.